SCP
0 0 0 0 0 0 0 0 0 0 0 0 0 0 0 0 0 0 0 0 0 0 0 0 0 0 0 0 0 0 0 0 0 0 0 0 0 0 0 0 0 0 0 0 0 0 0 0 0
0 0 0 0 0 0 0 0 0 0 0 0 0 0 0 0 0 0 0 0 0 0 0 0 0 0 0 0 0 0 0 0 0 0 0 0 0 0 0 0 0 0 0 0 0 0 0 0 0
0 0 0 0 0 0 0 0 0 0 0 0 0 0 0 0 0 0 0 0 0 0 0 0 0 0 0 0 0 0 0 0 0 0 0 0 0 0 0 0 0 0 0 0 0 0 0 0 0
0 0 0 0 0 0 0 0 0 0 0 0 -0 -0 0 0 0 0 0 0 0 0 0 0 1 1 0 0 0 0 0 0 0 0 0 0 0 0 0 0 0 0 0 0 0 0 0 0 0
0 0 0 0 0 0 0 0 0 0 0 0 -0 0 0 0 0 0 0 0 0 0 0 0 1 1 0 0 0 0 0 0 0 0 0 0 0 0 0 0 0 0 0 0 0 0 0 0 0
0 0 0 0 0 0 0 0 0 0 0 0 0 0 0 0 0 0 0 0 0 0 0 0 1 1 1 0 0 0 0 0 0 0 0 0 0 0 0 0 0 0 0 0 0 0 0 0 0
0 0 0 0 0 0 0 0 0 0 0 0 0 0 0 0 0 0 0 0 0 0 0 0 1 1 0 0 0 0 0 0 0 0 0 0 0 0 0 0 0 0 0 0 0 0 0 0 0
0 0 0 0 0 0 0 0 0 0 0 0 0 0 0 0 0 0 0 0 0 0 0 0 1 0 0 0 0 0 0 0 0 0 0 0 0 0 0 0 0 0 0 0 0 0 0 0 0
0 0 0 0 0 0 0 0 0 0 0 0 0 0 0 0 0 0 0 0 0 0 0 0 1 0 0 0 0 0 0 0 0 0 0 0 0 0 0 0 0 0 0 0 0 0 0 0 0
0 0 0 0 0 0 0 0 0 0 0 0 0 0 0 0 0 0 0 0 0 0 0 0 1 0 0 0 0 0 0 0 0 0 0 0 0 0 0 0 0 0 0 0 0 0 0 0 0
0 0 0 0 0 0 0 0 0 0 0 0 0 0 0 0 0 0 0 0 0 0 0 0 0 0 0 0 0 0 0 0 0 0 0 0 0 0 0 0 0 0 0 0 0 0 0 0 0
0 0 0 0 0 0 0 0 0 0 0 0 0 0 0 0 0 0 0 0 0 0 0 0 0 0 0 0 0 0 0 0 0 0 0 0 0 0 0 0 0 0 0 0 0 0 0 0 0
-0 0 0 0 0 0 0 0 0 0 0 0 0 0 0 0 0 0 0 0 0 0 0 0 0 0 0 0 0 0 0 0 0 0 0 0 0 0 0 0 0 0 0 0 0 0 0 0 0
0 0 0 0 0 0 0 0 0 0 0 0 0 0 0 0 0 0 0 0 0 0 0 0 0 0 0 0 0 0 0 0 0 0 0 0 0 0 0 0 0 0 0 0 0 0 0 0 0
0 0 0 0 0 0 0 0 0 0 0 0 0 0 0 0 0 0 0 0 0 0 0 0 0 0 0 0 0 0 0 0 0 0 0 0 0 0 0 0 0 0 0 0 0 0 0 0 0
0 0 0 0 0 0 0 0 0 0 0 0 0 0 0 0 0 0 0 0 0 0 0 0 0 0 0 0 0 0 0 0 0 0 0 0 0 0 0 0 0 0 0 0 0 0 0 0 0
0 0 0 0 0 0 0 0 0 0 0 0 0 0 0 0 0 0 0 0 0 0 0 0 0 0 0 0 0 0 0 0 0 0 0 0 0 0 0 0 0 0 0 0 0 0 0 0 0
0 0 0 0 0 0 0 0 0 0 0 0 0 0 0 0 0 0 0 0 0 0 0 0 0 0 0 0 0 0 0 0 0 0 0 0 0 0 0 0 0 0 0 0 0 0 0 0 0
0 0 0 0 0 0 0 0 0 0 0 0 0 0 0 0 0 -0 -0 -0 -0 0 0 0 0 0 0 0 0 0 0 0 0 0 0 0 0 0 0 0 0 0 0 0 0 0 0 0 0
0 0 0 0 0 0 0 0 0 0 0 0 0 0 0 0 0 -0 -0 -0 -0 -0 0 0 0 0 0 0 0 0 0 0 0 0 0 0 0 0 0 0 0 0 0 0 0 0 0 0 0
0 0 0 0 0 0 0 0 0 0 0 0 0 0 0 0 0 -0 -0 -0 0 0 0 0 0 0 0 0 0 0 0 0 0 0 0 0 0 0 0 0 0 0 0 0 0 0 0 0 0
0 0 0 0 0 0 0 0 0 0 0 -0 0 0 0 0 0 -0 -0 0 0 0 0 0 0 0 0 0 0 0 0 0 0 0 0 0 0 0 0 0 0 0 0 0 0 0 0 0 0
0 0 0 0 0 0 0 0 0 0 0 -0 -0 0 0 0 0 0 0 0 0 0 0 0 0 0 0 0 0 0 0 0 0 0 0 0 0 0 0 0 0 0 0 0 0 0 0 0 0
0 0 0 0 0 0 0 0 0 0 0 -0 -0 -0 0 0 0 0 0 0 0 0 0 0 0 0 0 0 0 0 0 0 0 0 0 0 0 0 0 0 0 0 0 0 0 0 0 0 0
0 0 0 0 0 0 0 0 0 0 0 -0 -0 -0 0 0 0 0 0 0 0 0 0 0 0 0 0 0 0 0 0 0 0 0 0 0 0 0 0 0 0 0 0 0 0 0 0 0 0
0 0 0 0 0 0 0 0 0 0 0 0 0 0 0 0 0 0 0 0 0 0 0 0 0 0 0 0 0 0 0 0 0 0 0 0 0 0 0 0 0 0 0 0 0 0 0 0 0
0 0 0 0 0 0 0 0 0 0 0 0 0 0 0 0 0 0 0 0 0 0 0 0 0 0 0 0 0 0 0 0 0 0 0 0 0 0 0 0 0 0 0 0 0 0 0 0 0
0 0 0 0 0 0 0 0 0 0 0 0 0 0 0 0 0 0 0 0 0 0 0 0 0 0 0 0 0 0 0 0 0 0 0 0 0 0 0 0 0 0 0 0 0 0 0 0 0
0 0 0 0 0 0 0 0 0 0 0 0 0 0 0 0 0 0 0 0 0 0 0 0 0 0 0 0 0 0 0 0 0 0 0 0 0 0 0 0 0 0 0 0 0 0 0 0 0
0 0 0 0 0 0 0 0 0 0 0 0 0 0 0 0 0 0 0 0 0 0 0 0 0 0 0 0 0 0 0 0 0 0 0 0 0 0 0 0 0 0 0 0 0 0 0 0 0
Wind_Speed
9 6 2 4 5 4 2 4 2 1 0 0 1 4 6 4 3 3 1 5 8 8 7 8 10 11 11 11 11 11 11 11 11 11 11 11 11 11 11 11 11 11 12 12 12 12 12 12 12
4 3 4 5 5 2 4 4 3 3 2 1 3 4 5 4 2 5 3 5 8 8 6 7 10 10 11 11 11 11 11 11 11 10 10 10 11 11 11 11 11 11 11 11 11 11 11 11 11
4 1 4 4 3 6 5 3 3 1 2 2 3 4 4 2 2 2 3 8 8 7 5 7 10 10 11 11 11 10 11 11 11 10 10 10 10 10 10 10 10 10 10 10 10 10 10 10 10
3 4 5 3 3 4 4 2 1 0 3 4 4 4 3 2 0 2 6 9 9 6 5 7 10 10 11 11 10 10 10 10 10 10 10 10 10 10 10 10 9 9 9 10 9 9 9 9 9
4 4 3 0 3 3 2 2 0 1 1 2 4 4 2 4 3 6 6 8 9 7 5 7 9 10 11 10 10 10 9 10 10 9 9 10 10 10 10 9 8 8 9 9 9 8 8 8 9
4 4 3 3 4 3 2 2 0 1 1 2 4 3 1 2 4 5 5 5 7 8 6 6 9 10 10 10 9 9 9 9 9 9 9 9 9 9 9 8 8 8 8 8 8 7 7 7 8
4 4 3 3 2 2 2 2 1 0 1 0 2 4 1 1 2 4 5 5 5 6 6 5 5 6 8 8 9 9 8 8 8 8 8 8 8 9 8 8 7 7 7 7 7 7 7 7 7
4 4 2 2 3 3 2 2 1 1 1 1 2 5 3 2 1 4 6 6 5 5 5 5 4 5 4 5 7 7 8 8 7 7 7 7 7 7 7 6 6 6 7 7 6 6 6 6 6
3 4 3 3 3 2 1 1 2 2 2 2 2 1 2 3 3 5 5 5 4 4 3 3 4 4 4 4 5 5 6 6 6 5 6 6 3 3 4 4 5 5 6 6 6 5 5 5 4
4 3 4 2 2 1 1 1 0 2 2 2 3 4 3 4 5 5 4 3 3 3 3 3 3 4 4 3 3 2 3 3 3 3 3 3 3 2 3 3 4 4 4 4 4 4 4 3 2
3 4 2 1 1 1 1 2 1 2 1 3 3 1 2 3 3 4 3 3 3 2 2 2 2 3 4 3 3 2 1 2 2 3 3 2 2 2 2 1 1 2 2 2 2 2 1 1 1
2 1 1 1 2 1 1 1 1 2 5 4 5 5 4 3 3 3 4 3 2 2 1 2 2 2 3 3 3 2 2 2 2 2 3 2 2 2 1 1 1 1 1 1 1 1 1 1 1
1 1 2 1 2 1 1 2 2 4 4 2 3 3 4 3 3 2 3 3 3 2 1 1 3 3 2 3 3 3 2 2 2 2 2 3 3 3 2 1 1 1 1 1 1 1 1 1 1
2 1 2 3 2 2 1 3 1 5 2 2 3 3 3 3 3 2 2 2 2 2 2 1 2 3 2 2 2 2 2 2 2 2 2 2 2 3 3 2 2 1 1 1 1 1 1 1 1
0 1 4 3 2 2 1 3 4 5 2 2 3 3 2 2 2 3 4 3 3 2 2 1 2 2 2 2 2 2 2 2 2 2 2 3 2 3 2 2 2 2 2 2 1 1 0 0 0
2 1 2 4 2 2 3 6 5 3 3 3 3 3 2 2 2 3 3 3 2 1 1 1 1 3 2 2 1 1 2 2 2 2 2 3 3 3 3 2 1 1 1 1 1 1 1 1 1
1 1 3 4 2 1 3 6 5 3 3 4 4 3 3 2 2 2 1 3 2 2 2 2 1 3 2 2 2 1 1 2 2 1 2 2 3 3 3 2 1 2 1 1 1 1 1 1 1
4 3 3 4 3 1 3 7 6 4 3 4 4 4 4 4 4 3 2 2 2 2 2 2 1 2 2 1 1 1 1 1 1 1 1 1 2 2 2 2 2 2 2 1 1 1 1 1 1
3 3 4 5 3 2 6 8 9 5 4 5 5 5 5 5 4 3 2 2 2 2 1 1 1 2 2 1 1 1 1 0 0 0 0 1 1 2 2 2 2 2 2 2 2 1 1 0 0
3 4 5 5 3 2 5 9 8 6 6 6 7 6 6 4 2 2 2 2 2 2 2 2 2 2 2 1 1 2 1 1 1 0 0 0 1 1 2 2 2 2 2 1 1 1 1 0 0
4 5 5 4 5 3 3 7 5 4 3 3 4 4 4 5 5 4 3 3 3 3 3 2 2 2 1 1 1 1 2 1 1 1 0 1 0 1 1 2 2 2 2 2 2 2 2 2 1
6 4 4 3 1 4 1 5 6 4 4 4 4 3 3 3 3 3 3 4 4 3 3 2 2 2 2 2 2 2 1 1 1 1 1 1 0 1 1 1 2 2 2 2 2 2 1 2 2
4 2 2 2 2 3 2 3 8 2 5 6 5 4 4 3 4 3 3 4 3 3 3 3 2 2 2 2 3 2 1 1 1 0 0 1 1 1 1 1 1 2 2 2 2 1 1 2 2
2 2 2 2 2 4 5 5 8 3 5 4 4 4 4 3 2 2 1 1 1 1 2 3 3 2 2 2 2 2 2 1 0 1 1 1 1 1 1 1 1 2 2 3 3 3 3 2 2
2 4 3 3 2 7 2 4 8 5 3 3 4 4 3 3 2 1 1 1 1 1 2 2 3 2 1 2 2 2 2 2 2 2 2 1 1 1 2 2 2 2 2 3 3 3 3 3 3
3 5 5 4 5 5 2 5 7 4 3 1 2 3 2 2 2 2 3 2 2 1 1 2 2 2 1 1 1 1 1 2 2 2 2 3 2 3 3 2 3 3 3 3 2 3 3 3 3
3 3 3 3 1 3 5 5 6 3 4 3 2 3 2 1 1 1 1 1 1 2 1 2 2 2 1 1 1 1 1 1 2 2 3 3 3 3 3 3 3 3 3 3 3 3 3 3 4
3 4 3 3 2 4 5 5 5 4 3 2 1 1 1 1 0 0 0 1 0 1 0 1 1 2 1 1 1 1 2 2 2 2 3 3 3 3 3 3 3 3 3 3 3 3 3 4 4
3 2 2 3 3 3 4 7 4 5 4 3 3 2 2 2 2 1 1 1 0 0 0 0 0 1 1 2 2 2 2 2 2 2 3 4 4 4 4 4 4 4 4 3 3 4 4 4 4
3 4 5 4 4 3 3 8 2 2 2 2 2 2 2 2 2 2 1 1 0 0 0 1 1 1 2 2 2 2 2 2 3 3 4 4 4 4 4 4 4 4 4 4 4 4 4 4 5
Wind_Direction
334 333 24 54 59 60 229 249 244 302 314 274 76 101 109 103 123 143 131 131 131 142 147 142 134 130 126 120 115 112 110 108 104 102 102 101 99 98 98 96 95 93 92 91 91 92 92 92 91
333 344 48 61 97 154 254 250 238 241 217 142 54 69 78 70 70 103 112 135 134 139 143 142 135 131 128 123 119 115 114 111 109 106 104 103 101 99 98 96 95 95 95 94 94 94 95 94 92
334 36 78 82 137 184 216 234 217 262 340 45 53 45 81 79 72 133 152 140 129 128 133 139 133 132 130 126 123 120 117 116 113 110 106 104 103 102 99 95 94 95 97 97 96 97 97 95 93
41 45 57 89 206 221 208 243 226 46 18 36 84 56 49 23 26 138 135 133 128 126 129 139 133 133 131 128 125 122 120 119 117 112 108 106 105 104 101 98 98 99 100 99 97 99 100 97 93
59 77 77 172 237 251 253 277 304 70 38 34 85 86 40 350 52 99 116 129 131 131 132 141 134 132 132 130 129 126 124 122 121 116 112 109 108 107 104 101 102 104 106 105 102 101 102 100 95
59 74 111 212 239 263 288 309 17 48 65 50 88 100 115 2 70 97 107 121 133 136 137 142 137 133 132 130 128 127 124 122 121 119 116 113 112 111 110 107 105 107 109 107 105 103 102 102 98
105 109 170 198 219 251 275 325 71 56 50 318 121 113 153 8 62 91 96 101 116 127 132 132 137 136 135 132 129 126 122 118 117 117 115 111 109 112 113 109 107 108 111 111 109 107 105 102 97
126 113 168 206 206 237 292 8 33 38 279 330 81 132 179 233 68 86 90 89 96 105 118 126 128 128 130 135 127 124 119 115 114 108 106 107 109 112 112 112 109 110 115 116 112 109 106 100 94
87 90 195 208 195 237 330 26 356 10 65 25 36 137 183 138 97 84 83 79 86 96 101 116 124 125 126 130 127 125 121 116 113 109 106 105 108 110 113 111 110 111 117 118 114 110 103 93 83
88 154 216 225 193 212 335 16 294 46 24 15 15 13 70 102 107 108 107 107 108 117 118 113 126 130 126 132 125 128 126 125 118 120 119 108 109 106 107 108 109 107 111 113 111 106 101 88 76
129 183 215 277 270 253 321 318 313 134 236 217 195 179 108 93 109 126 133 145 156 151 122 122 134 137 134 130 130 123 124 126 127 132 128 120 113 106 99 109 107 105 99 94 91 87 81 95 103
135 251 229 273 314 315 279 281 333 211 227 221 184 164 153 146 161 164 158 169 156 139 129 124 117 129 136 136 138 134 135 137 141 150 147 139 133 124 135 138 139 129 116 111 105 108 114 115 135
196 245 281 300 338 322 329 286 262 265 252 198 156 148 160 170 183 189 171 175 162 149 153 146 126 120 136 132 145 142 151 154 153 156 163 155 154 156 155 158 154 150 138 142 146 166 165 154 169
195 219 288 289 290 286 250 287 274 260 229 149 152 170 179 182 181 181 172 168 175 159 160 147 134 130 138 138 146 153 160 160 153 155 159 155 155 156 159 160 162 171 174 177 173 186 193 209 200
91 5 320 289 247 235 143 297 241 244 177 171 196 198 193 210 181 182 190 180 192 180 158 141 148 123 138 148 156 154 167 165 166 169 166 160 150 147 152 153 169 189 183 172 162 156 147 219 240
46 45 293 280 215 214 153 255 259 248 168 207 221 218 209 224 210 202 195 176 180 164 162 148 137 126 137 152 165 158 171 170 173 171 169 164 153 147 150 145 169 179 162 166 168 164 177 216 228
28 236 252 282 241 190 181 248 264 252 195 224 230 224 218 239 244 233 208 170 167 169 175 147 116 133 136 149 153 147 151 158 165 161 168 172 163 158 159 154 167 156 146 162 195 187 190 203 229
216 223 247 254 262 216 234 254 272 271 235 234 236 228 219 219 229 219 201 173 165 163 175 158 122 134 137 138 127 112 87 102 120 140 162 159 166 161 153 148 155 153 157 167 176 199 219 200 215
193 215 255 261 272 261 246 258 268 261 252 248 242 229 225 230 231 201 187 162 143 142 157 173 147 150 134 130 149 146 164 174 104 107 123 153 151 154 148 149 154 160 173 183 176 168 177 241 102
234 250 270 288 296 264 264 269 270 254 237 233 228 228 222 224 212 192 188 164 154 164 171 181 179 156 148 146 158 162 166 179 171 140 41 75 136 166 162 155 167 178 174 165 172 150 154 205 129
239 222 242 266 317 308 305 294 270 273 248 246 233 225 215 198 191 190 183 181 174 175 182 184 185 154 136 111 100 84 76 43 31 26 4 320 260 199 181 176 170 178 176 188 194 183 169 196 218
251 232 226 247 292 280 217 284 279 257 270 254 242 227 209 187 174 170 179 178 183 196 183 185 170 151 132 121 112 117 123 184 238 233 241 280 295 272 220 190 178 180 183 195 207 198 204 182 209
235 245 233 236 221 289 249 242 283 262 259 254 235 217 205 184 175 169 178 183 188 191 182 173 148 135 131 126 133 142 161 223 261 213 230 280 286 277 259 211 196 197 201 205 215 220 219 204 209
218 38 26 44 76 272 231 201 276 246 246 261 230 209 199 189 177 163 164 165 183 188 168 153 143 133 132 131 138 147 165 192 278 279 242 272 293 306 292 255 228 227 224 217 218 214 218 226 226
104 95 39 359 333 254 219 206 255 265 259 235 209 201 191 180 167 147 143 194 175 165 169 157 148 145 133 137 161 171 185 196 217 237 227 252 267 281 273 276 249 247 246 235 223 217 222 222 227
190 154 161 199 234 278 266 236 258 298 313 263 164 148 132 148 172 188 186 178 186 176 176 163 157 160 161 173 203 195 198 201 225 244 241 237 243 243 244 256 259 262 262 261 241 236 236 233 231
157 194 172 150 248 276 268 277 297 339 2 31 63 87 124 158 158 197 198 177 185 189 192 181 174 182 193 199 217 218 222 218 227 246 249 239 250 256 249 247 253 261 259 254 246 246 247 247 241
163 155 121 147 194 262 283 270 261 278 280 322 2 13 299 316 304 285 279 282 285 227 245 155 161 181 205 209 219 246 247 244 243 245 264 259 255 253 249 253 252 256 258 255 247 249 249 247 252
158 163 153 163 180 193 271 271 231 219 220 209 233 247 227 232 241 250 267 266 269 72 21 40 190 228 239 232 230 230 241 246 247 254 265 263 256 250 243 245 246 248 249 250 250 249 246 246 254
187 186 160 174 232 208 223 266 277 226 221 205 226 249 251 240 236 229 237 277 318 320 287 277 265 254 256 252 249 249 250 252 254 256 263 262 259 253 247 245 245 248 251 248 243 250 251 243 245